Weather History for KMBS - September, 2013

Change the Weather History Date:

Monday, September 16, 2013

  Actual Average Record
Temperature  
Mean Temperature 51 °F 61 °F  
Max Temperature 59 °F 72 °F 80 °F (2003)
Min Temperature 43 °F 50 °F 37 °F (2007)
Degree Days  
Heating Degree Days 14    
Month to date heating degree days 57  
Since 1 July heating degree days 78  
Cooling Degree Days 0    
Month to date cooling degree days 43  
Year to date cooling degree days 650  
Moisture  
Dew Point 46 °F    
Average Humidity 72    
Maximum Humidity 93    
Minimum Humidity 51    
Precipitation  
Precipitation 0.00 in 0.14 in 0.48 in (2010)
Month to date precipitation 0.18 2.05  
Year to date precipitation 25.06 22.57  
Snow  
Snow 0.00 in - - ()
Month to date snowfall 0.0  
Since 1 July snowfall 0.0  
Since 1 September snowfall 0.0  
Snow Depth 0.00 in    
Sea Level Pressure  
Sea Level Pressure 30.30 in    
Wind  
Wind Speed 10 mph (NNE)    
Max Wind Speed 20 mph    
Max Gust Speed 24 mph    
Visibility 10 miles    
Events      
T = Trace of Precipitation, MM = Missing Value Source: NWS Daily Summary

Daily Weather History Graph

Daily Weather History Graph

Search for Another Location

Airport or City:

Trip Planner

Search our weather history database for the weather conditions in past years. The results will help you decide how hot, cold, wet, or windy it might be!

Date:

Astronomy

Sep. 16, 2013 Rise Set
Actual Time 7:17 AM EDT 7:44 PM EDT
Civil Twilight 6:48 AM EDT 8:12 PM EDT
Nautical Twilight 6:14 AM EDT 8:46 PM EDT
Astronomical Twilight 5:39 AM EDT 9:21 PM EDT
Moon 5:56 PM EDT (9/16) 3:57 AM EDT (9/16)
Length of Visible Light 13h 24m
Length of Day
12h 27m
Waxing Gibbous, 90% of the Moon is Illuminated
Sep 16
Waxing Gibbous
Sep 19
Full
Sep 26
Last Quarter
Oct 4
New
Oct 11
First Quarter

Hourly Weather History & Observations

Time (EDT) Temp. Windchill Dew Point Humidity Pressure Visibility Wind Dir Wind Speed Gust Speed Precip Events Conditions
12:09 AM 55.4 °F - 53.6 °F 94% 30.15 in 6.0 mi West 6.9 mph - N/A   Overcast
12:53 AM 55.9 °F - 54.0 °F 93% 30.15 in 9.0 mi West 6.9 mph - N/A   Overcast
1:53 AM 55.9 °F - 54.0 °F 93% 30.17 in 10.0 mi NNW 6.9 mph - N/A   Overcast
2:31 AM 55.4 °F - 53.6 °F 94% 30.18 in 10.0 mi North 15.0 mph - N/A   Overcast
2:53 AM 55.0 °F - 52.0 °F 89% 30.19 in 10.0 mi North 11.5 mph - N/A   Overcast
3:23 AM 55.4 °F - 51.8 °F 88% 30.19 in 10.0 mi North 10.4 mph - N/A   Overcast
3:35 AM 55.4 °F - 51.8 °F 88% 30.20 in 10.0 mi North 11.5 mph - N/A   Overcast
3:48 AM 53.6 °F - 51.8 °F 94% 30.20 in 10.0 mi North 11.5 mph - N/A   Overcast
3:53 AM 54.0 °F - 51.1 °F 90% 30.21 in 10.0 mi North 12.7 mph - N/A   Overcast
4:12 AM 53.6 °F - 50.0 °F 88% 30.20 in 10.0 mi North 11.5 mph - N/A   Overcast
4:22 AM 53.6 °F - 48.2 °F 82% 30.21 in 10.0 mi NNE 13.8 mph - N/A   Overcast
4:53 AM 53.1 °F - 48.9 °F 86% 30.23 in 10.0 mi North 9.2 mph - N/A   Overcast
5:36 AM 51.8 °F - 48.2 °F 88% 30.24 in 10.0 mi North 12.7 mph - N/A   Overcast
5:53 AM 52.0 °F - 48.0 °F 86% 30.26 in 10.0 mi North 10.4 mph - N/A   Overcast
6:34 AM 51.8 °F - 48.2 °F 88% 30.27 in 10.0 mi North 12.7 mph - N/A   Overcast
6:44 AM 51.8 °F - 46.4 °F 82% 30.27 in 10.0 mi North 15.0 mph - N/A   Overcast
6:53 AM 51.1 °F - 46.9 °F 86% 30.29 in 10.0 mi North 9.2 mph - N/A   Overcast
7:53 AM 50.0 °F - 44.1 °F 80% 30.31 in 10.0 mi NNE 19.6 mph 24.2 mph N/A   Overcast
8:53 AM 48.9 °F - 43.0 °F 80% 30.34 in 10.0 mi North 11.5 mph - N/A   Overcast
9:53 AM 51.1 °F - 43.0 °F 74% 30.36 in 10.0 mi North 11.5 mph - N/A   Overcast
10:53 AM 54.0 °F - 43.0 °F 66% 30.38 in 10.0 mi North 13.8 mph 20.7 mph N/A   Overcast
11:06 AM 53.6 °F - 44.6 °F 72% 30.38 in 10.0 mi NNE 12.7 mph - N/A   Overcast
11:53 AM 55.9 °F - 44.1 °F 64% 30.39 in 10.0 mi NNE 15.0 mph - N/A   Overcast
12:53 PM 55.9 °F - 43.0 °F 62% 30.40 in 10.0 mi NNE 13.8 mph - N/A   Overcast
1:53 PM 57.0 °F - 42.1 °F 57% 30.40 in 10.0 mi NNE 11.5 mph - N/A   Overcast
2:53 PM 57.9 °F - 41.0 °F 53% 30.40 in 10.0 mi NE 11.5 mph 19.6 mph N/A   Scattered Clouds
3:53 PM 57.9 °F - 39.0 °F 49% 30.40 in 10.0 mi NE 10.4 mph - N/A   Partly Cloudy
4:53 PM 57.9 °F - 41.0 °F 53% 30.39 in 10.0 mi NE 12.7 mph 18.4 mph N/A   Clear
5:53 PM 57.0 °F - 42.1 °F 57% 30.39 in 10.0 mi ENE 9.2 mph - N/A   Clear
6:53 PM 55.0 °F - 41.0 °F 59% 30.39 in 10.0 mi ENE 9.2 mph - N/A   Clear
7:53 PM 50.0 °F - 41.0 °F 71% 30.40 in 10.0 mi ENE 4.6 mph - N/A   Clear
8:53 PM 48.0 °F - 39.9 °F 74% 30.41 in 10.0 mi East 6.9 mph - N/A   Clear
9:53 PM 46.0 °F 41.9 °F 39.0 °F 76% 30.41 in 10.0 mi East 8.1 mph - N/A   Clear
10:53 PM 44.1 °F 40.8 °F 39.0 °F 82% 30.42 in 10.0 mi East 5.8 mph - N/A   Clear
11:53 PM 43.0 °F 40.3 °F 37.9 °F 82% 30.43 in 10.0 mi East 4.6 mph - N/A   Clear